Wind_Speed
42 44 43 39 40 44 56 56 54 52 44 39 29 25 16 12 9 7 7 8 11 13 18 21 25 25 19 16 19 19 18 19 19 21 19 17 21 23 23 23 23 25 33 30
43 46 42 44 43 44 50 59 58 55 50 44 40 36 30 20 17 10 7 7 10 8 11 16 19 22 25 16 16 20 22 22 18 21 18 18 20 23 24 28 28 31 28 26
39 44 48 48 48 47 48 57 60 60 56 51 48 39 36 29 25 21 11 5 3 9 6 9 13 18 24 23 18 14 20 21 19 20 22 20 21 25 26 30 29 28 24 22
32 39 46 52 53 51 52 53 61 63 60 59 48 43 35 33 26 25 21 24 8 9 5 1 8 14 19 25 22 18 16 20 21 21 22 21 21 25 28 31 27 26 20 18
37 40 42 49 56 55 53 55 60 65 64 61 50 45 40 35 34 27 24 28 10 17 11 7 3 10 15 19 23 20 17 16 20 25 22 20 21 22 28 29 24 25 20 11
40 44 48 49 53 60 59 60 59 66 67 64 56 48 46 43 39 34 26 24 17 19 18 15 7 7 11 14 19 21 20 17 18 18 19 19 20 20 21 24 23 23 15 9
40 42 49 54 56 58 64 65 63 64 70 68 66 59 57 43 43 38 35 30 23 24 24 20 13 8 10 12 14 16 19 20 21 17 16 17 17 18 17 16 18 16 12 6
37 41 45 57 61 62 64 67 67 65 73 72 68 64 56 47 46 43 40 39 31 24 29 25 19 14 10 12 13 10 12 17 18 19 19 15 13 14 15 15 13 12 10 9
32 37 41 51 66 67 67 69 72 70 67 73 69 67 59 57 54 50 44 38 39 41 35 30 24 19 17 13 11 13 12 14 18 18 19 20 20 20 20 19 19 20 20 19
29 32 37 45 59 74 74 72 74 73 70 74 74 71 63 59 56 52 52 45 45 43 38 36 29 26 20 19 16 15 13 13 17 19 18 19 19 19 19 18 17 17 18 21
29 30 29 39 50 65 78 79 77 73 77 73 80 78 73 61 66 59 54 53 53 50 44 39 34 29 25 21 21 21 17 15 15 17 17 17 17 18 18 17 15 15 14 16
32 38 28 33 44 59 75 84 78 81 78 74 83 84 78 70 65 69 66 60 54 47 44 42 39 34 31 26 25 25 22 19 18 16 16 17 14 14 13 11 10 8 8 9
37 38 25 26 35 49 71 84 84 80 83 79 85 88 81 75 68 71 73 67 63 53 54 50 46 40 36 30 30 28 25 25 24 21 16 16 16 15 15 15 13 9 7 3
40 34 19 16 26 40 59 79 92 87 82 83 83 92 88 82 78 73 75 72 70 57 57 55 51 46 42 38 36 33 30 28 27 27 26 22 19 17 16 14 13 13 14 12
37 27 22 17 29 34 51 77 88 90 84 86 86 94 88 86 91 75 78 81 77 73 65 59 55 50 47 44 41 40 37 35 33 29 28 26 23 25 25 22 20 20 17 15
27 22 21 17 20 31 48 67 85 92 89 86 90 90 96 91 89 88 75 73 78 73 68 65 61 57 53 52 48 45 46 43 40 38 34 30 28 25 23 22 29 28 25 23
22 19 22 15 17 25 39 57 76 92 94 88 88 87 95 92 91 91 85 74 78 80 76 69 70 65 62 60 56 54 50 50 47 45 42 41 38 35 34 31 27 32 33 28
22 20 23 19 19 31 46 54 71 88 95 92 89 90 93 101 91 97 94 82 80 80 79 75 72 69 64 64 63 57 56 56 55 52 51 49 46 44 43 41 37 34 40 36
20 22 28 25 24 32 37 43 62 84 94 95 91 90 94 101 100 89 99 95 88 81 82 85 79 73 65 63 67 65 63 61 60 60 58 57 53 50 49 48 48 45 43 43
17 24 32 29 28 28 37 49 54 72 87 96 94 90 90 96 95 97 96 100 96 99 82 84 81 80 74 71 68 71 66 72 66 65 64 64 62 59 57 56 53 52 47 48
12 24 31 32 28 27 29 35 45 52 66 89 97 95 93 94 98 103 94 96 100 100 96 93 86 84 84 81 76 76 73 71 67 70 69 66 68 65 62 61 61 61 54 59
8 19 27 28 27 25 26 28 30 39 49 63 88 98 97 97 95 97 101 95 97 99 100 96 93 93 88 87 84 81 78 80 76 73 72 71 71 71 70 67 65 63 61 65
1 13 20 21 23 21 21 23 27 29 36 49 62 86 98 100 98 97 96 100 98 97 97 99 99 99 99 91 87 85 85 80 79 75 80 80 77 77 76 74 71 70 70 73
12 7 17 19 19 20 19 18 20 24 27 31 39 56 74 95 102 103 100 99 101 100 93 95 94 96 102 98 95 95 91 91 89 88 83 79 80 83 81 81 81 77 76 79
20 8 3 17 22 22 23 23 23 24 26 29 34 40 53 71 87 101 105 102 102 102 100 99 96 97 94 97 96 100 97 94 90 92 95 92 89 87 86 86 85 85 84 83
20 17 8 5 2 14 23 29 32 33 34 36 37 40 45 52 65 79 98 104 106 104 103 101 99 98 97 95 96 93 98 99 99 101 89 98 100 90 88 91 92 92 93 87
Wind_Direction
235 233 234 232 228 220 214 212 211 210 207 210 199 230 233 213 231 249 292 290 341 6 27 32 49 51 66 92 108 109 140 137 134 132 131 130 142 150 150 141 144 137 129 129
238 235 233 230 227 227 218 214 211 212 203 207 196 198 222 215 223 245 235 277 301 329 20 22 50 61 63 79 106 123 128 145 129 130 135 128 135 142 144 145 142 140 126 122
239 236 233 231 225 223 224 216 214 212 206 204 207 201 205 206 225 226 255 200 274 289 326 14 53 64 75 73 84 118 138 141 140 140 128 132 133 143 149 150 148 143 135 129
244 238 234 228 226 222 221 220 215 211 209 205 205 203 215 206 215 222 221 239 246 253 247 315 69 81 80 82 79 86 117 141 141 133 126 126 135 147 156 160 156 150 152 150
252 242 234 231 227 220 219 217 218 211 209 208 196 194 206 204 208 214 206 224 234 231 212 205 116 102 95 88 86 84 90 113 126 130 134 142 140 145 158 166 166 168 162 184
257 242 236 229 227 224 216 215 215 214 210 210 196 187 202 203 208 208 220 209 231 228 212 204 188 140 124 103 95 96 97 99 119 131 139 146 150 144 155 170 179 186 197 207
260 247 234 228 224 223 218 213 211 212 211 208 210 198 200 202 203 209 217 216 240 225 210 203 192 187 140 136 115 101 102 104 109 123 127 141 150 150 155 161 172 183 195 193
272 257 236 225 220 220 219 212 211 211 212 206 207 203 194 199 210 216 210 219 224 212 206 214 198 194 171 151 144 125 115 106 108 108 109 107 125 139 146 148 148 147 143 137
282 273 251 230 218 217 217 213 209 210 212 207 205 197 195 198 210 213 219 216 226 221 213 211 201 200 189 179 162 148 139 129 117 115 113 114 106 103 102 100 103 100 100 104
292 284 255 239 224 214 213 213 209 207 210 207 203 198 194 205 200 210 210 217 220 222 217 202 206 203 200 188 187 165 157 152 141 132 126 129 131 119 109 102 95 84 74 77
303 306 268 241 231 220 210 210 208 205 207 206 202 198 198 198 206 205 211 211 216 221 212 205 203 199 204 199 193 187 177 173 164 152 141 135 131 127 121 114 107 98 95 86
309 312 290 253 233 217 211 206 206 206 204 206 201 201 198 199 207 205 212 214 214 209 217 207 207 205 204 203 204 203 208 195 183 168 167 167 160 155 146 141 132 127 110 99
311 308 289 263 234 215 206 206 205 204 205 202 203 202 199 200 201 207 212 217 219 210 213 211 208 204 211 206 212 213 211 212 200 188 186 181 184 184 176 175 179 178 179 157
310 299 273 269 237 212 207 200 206 205 205 202 203 203 209 202 201 206 210 215 216 210 212 214 210 206 212 209 213 218 218 217 215 211 204 202 197 200 196 195 208 209 209 200
305 283 260 227 232 211 206 201 204 206 204 203 204 205 207 209 207 199 211 215 216 217 217 215 212 210 213 216 212 219 220 222 221 221 214 209 208 211 209 210 217 220 220 219
299 265 250 244 227 215 210 205 201 205 204 205 207 205 208 211 206 208 199 210 215 217 214 214 216 213 214 221 222 220 225 222 227 226 232 225 219 224 218 217 222 225 228 224
289 253 238 234 233 211 208 207 201 205 205 205 209 209 212 210 214 207 208 206 210 214 214 214 216 220 217 219 220 221 225 228 226 230 230 227 228 230 226 220 217 231 226 221
267 237 221 216 220 214 201 207 206 206 207 206 209 211 213 213 212 214 207 207 205 210 215 218 221 222 221 221 222 223 225 227 229 230 234 232 231 234 233 232 223 224 228 228
239 214 210 207 207 209 209 203 213 208 206 209 210 215 215 214 217 216 216 210 212 211 213 217 220 219 223 223 224 224 229 233 234 230 231 236 235 236 238 234 237 240 240 235
219 203 203 205 207 207 204 207 218 215 210 210 210 214 219 220 218 217 220 216 220 216 217 215 220 222 224 226 229 230 232 233 233 236 237 237 238 239 239 242 241 244 250 252
219 200 199 202 204 211 216 216 220 222 218 215 213 213 217 221 223 220 218 222 223 226 226 222 217 219 226 227 228 232 234 231 238 238 237 240 242 242 244 244 246 245 245 247
224 203 198 203 208 207 216 220 221 224 223 221 220 217 217 222 224 227 222 220 224 228 229 229 228 226 224 225 228 231 234 237 237 237 238 240 241 245 245 245 246 248 247 250
297 206 203 206 216 219 220 220 221 226 230 229 227 225 222 222 224 226 230 230 223 226 228 231 231 234 235 225 224 230 232 233 235 241 242 238 243 245 246 247 246 248 250 250
30 209 207 214 220 227 234 234 232 230 233 232 228 230 231 227 227 226 228 232 232 226 227 230 231 233 235 236 236 236 235 237 238 241 242 248 248 245 247 247 247 249 250 254
21 31 226 227 228 231 237 242 244 242 241 240 239 237 233 232 232 230 231 231 234 234 230 229 232 234 234 238 238 239 239 236 238 241 241 241 240 249 246 248 250 251 252 255
18 32 49 56 281 249 245 243 243 245 247 248 248 247 244 239 235 234 233 233 235 236 236 234 232 233 236 237 240 239 241 243 241 239 240 242 244 242 248 252 252 253 253 252
Height
10891 10895 10899 10909 10915 10919 10926 10931 10939 10945 10952 10958 10966 10974 10976 10978 10981 10982 10984 10984 10985 10984 10980 10976 10973 10967 10963 10961 10960 10960 10962 10965 10967 10968 10969 10970 10971 10972 10973 10974 10976 10977 10979 10980
10880 10885 10893 10897 10905 10910 10915 10923 10930 10937 10945 10952 10958 10966 10972 10975 10978 10981 10983 10984 10985 10985 10983 10980 10977 10973 10968 10966 10965 10964 10965 10968 10969 10970 10971 10973 10974 10975 10977 10978 10980 10981 10982 10983
10870 10875 10878 10884 10892 10899 10905 10912 10921 10928 10938 10945 10951 10958 10964 10969 10973 10977 10981 10983 10984 10986 10985 10984 10980 10978 10973 10971 10969 10969 10968 10969 10971 10972 10972 10973 10976 10978 10980 10981 10982 10985 10985 10986
10861 10862 10866 10871 10877 10887 10893 10902 10910 10921 10929 10935 10945 10951 10958 10963 10967 10972 10977 10981 10984 10984 10985 10985 10982 10981 10979 10975 10974 10972 10972 10971 10971 10973 10974 10974 10977 10980 10982 10983 10985 10987 10989 10990
10848 10851 10855 10859 10864 10874 10884 10890 10898 10908 10919 10929 10937 10944 10952 10957 10964 10967 10971 10976 10981 10982 10983 10985 10985 10983 10981 10980 10978 10977 10976 10976 10974 10975 10976 10978 10979 10982 10984 10985 10988 10989 10990 10991
10833 10835 10839 10845 10852 10858 10870 10877 10885 10898 10909 10918 10926 10934 10942 10949 10956 10961 10966 10971 10975 10980 10981 10983 10985 10984 10983 10982 10982 10981 10981 10980 10979 10979 10979 10981 10982 10983 10985 10987 10989 10991 10991 10992
10815 10817 10823 10829 10836 10843 10850 10861 10873 10883 10893 10904 10915 10924 10930 10941 10948 10954 10961 10965 10971 10976 10978 10981 10984 10985 10984 10984 10984 10985 10985 10984 10984 10983 10983 10983 10984 10984 10986 10988 10990 10992 10992 10993
10799 10800 10803 10807 10818 10826 10836 10850 10861 10870 10878 10892 10905 10915 10924 10933 10940 10947 10953 10960 10967 10972 10976 10977 10981 10983 10985 10985 10985 10986 10987 10987 10987 10986 10987 10987 10987 10987 10988 10989 10991 10992 10993 10994
10786 10784 10785 10790 10799 10810 10820 10833 10845 10857 10871 10885 10898 10906 10917 10923 10931 10938 10946 10953 10958 10965 10971 10973 10977 10980 10983 10985 10986 10988 10989 10989 10989 10990 10990 10992 10992 10992 10993 10993 10995 10996 10996 10997
10775 10769 10769 10772 10779 10788 10801 10816 10832 10846 10857 10870 10885 10895 10905 10913 10920 10929 10938 10945 10951 10958 10965 10967 10971 10975 10980 10982 10986 10987 10989 10990 10990 10991 10993 10993 10995 10997 10998 10999 10999 11000 11000 11001
10764 10758 10754 10755 10759 10769 10782 10798 10815 10835 10842 10856 10869 10883 10893 10899 10910 10920 10928 10936 10943 10950 10956 10960 10965 10970 10975 10979 10983 10985 10988 10990 10991 10992 10994 10995 10997 10998 11000 11001 11001 11002 11002 11003
10753 10747 10743 10740 10742 10751 10767 10785 10802 10814 10830 10843 10858 10869 10878 10890 10897 10908 10918 10926 10933 10942 10946 10953 10959 10964 10968 10974 10979 10983 10986 10989 10991 10993 10994 10996 10997 10998 11000 11001 11003 11003 11003 11003
10741 10736 10733 10731 10732 10738 10751 10770 10787 10801 10808 10828 10841 10856 10866 10878 10886 10896 10906 10916 10924 10931 10937 10943 10950 10957 10963 10967 10973 10978 10982 10986 10989 10990 10992 10994 10996 10997 10998 10999 11001 11003 11003 11004
10729 10724 10725 10729 10724 10728 10738 10754 10763 10784 10799 10815 10827 10841 10852 10864 10872 10884 10896 10905 10913 10920 10928 10935 10942 10949 10955 10960 10966 10971 10977 10981 10985 10987 10988 10990 10992 10994 10996 10998 11000 11001 11001 11001
10718 10713 10711 10715 10714 10717 10726 10734 10750 10772 10786 10800 10811 10823 10836 10845 10854 10869 10885 10892 10900 10909 10918 10926 10932 10939 10946 10951 10956 10963 10968 10974 10977 10980 10984 10987 10988 10990 10992 10995 10997 10997 10997 10997
10706 10704 10704 10705 10707 10711 10717 10730 10741 10757 10772 10784 10794 10810 10818 10833 10846 10855 10869 10879 10888 10896 10907 10917 10922 10929 10936 10942 10947 10953 10959 10963 10968 10973 10978 10980 10982 10984 10987 10990 10992 10993 10993 10994
10696 10696 10697 10701 10703 10707 10716 10724 10730 10743 10758 10772 10784 10793 10804 10820 10829 10842 10853 10861 10871 10884 10894 10903 10909 10919 10924 10930 10935 10941 10947 10952 10959 10962 10967 10970 10974 10976 10979 10981 10983 10986 10987 10988
10685 10688 10691 10695 10700 10703 10705 10711 10721 10732 10746 10759 10770 10781 10791 10802 10813 10826 10839 10848 10858 10867 10880 10890 10898 10907 10913 10920 10925 10931 10936 10940 10946 10951 10954 10959 10963 10967 10969 10972 10973 10976 10979 10980
10673 10679 10683 10689 10694 10699 10704 10708 10711 10720 10735 10748 10760 10769 10778 10787 10800 10817 10824 10837 10843 10854 10867 10879 10887 10894 10902 10907 10911 10917 10923 10929 10934 10938 10942 10947 10952 10955 10958 10961 10963 10966 10969 10971
10666 10672 10677 10683 10688 10692 10698 10703 10706 10717 10725 10736 10750 10759 10768 10776 10789 10800 10810 10822 10832 10843 10854 10864 10873 10882 10889 10893 10898 10905 10911 10916 10921 10925 10929 10933 10938 10941 10946 10950 10952 10953 10957 10958
10663 10666 10672 10677 10682 10687 10692 10696 10701 10709 10721 10727 10735 10746 10756 10764 10771 10782 10794 10806 10816 10824 10836 10845 10854 10863 10871 10878 10884 10889 10895 10901 10907 10911 10916 10919 10922 10927 10931 10934 10938 10941 10945 10943
10662 10665 10669 10675 10679 10683 10687 10691 10696 10700 10707 10713 10723 10733 10742 10750 10759 10767 10777 10789 10798 10805 10816 10827 10833 10843 10853 10859 10865 10872 10879 10883 10889 10894 10900 10903 10907 10911 10915 10918 10922 10926 10928 10928
10663 10664 10668 10673 10677 10679 10683 10687 10692 10695 10699 10704 10710 10718 10728 10737 10744 10752 10758 10766 10778 10788 10798 10806 10815 10824 10832 10841 10846 10854 10861 10866 10871 10876 10880 10886 10890 10894 10899 10901 10904 10908 10910 10913
10667 10666 10668 10672 10674 10677 10680 10683 10686 10690 10693 10696 10700 10704 10709 10719 10726 10733 10741 10748 10757 10770 10780 10788 10796 10805 10814 10822 10827 10835 10843 10849 10855 10859 10864 10866 10869 10876 10879 10883 10886 10889 10892 10893
10669 10667 10668 10670 10672 10674 10675 10677 10679 10681 10684 10687 10689 10691 10694 10699 10707 10717 10726 10733 10740 10748 10759 10768 10777 10786 10794 10801 10809 10817 10822 10829 10836 10838 10842 10848 10851 10853 10859 10863 10867 10871 10874 10874
10674 10670 10669 10668 10668 10668 10669 10671 10673 10674 10675 10677 10679 10680 10682 10687 10692 10696 10703 10712 10721 10730 10738 10746 10756 10765 10774 10782 10789 10796 10802 10806 10812 10818 10821 10825 10828 10836 10837 10840 10846 10850 10853 10855